Miscellaneous Local Product
Issued by NWS North Platte, NE

Home | Current Version | Previous Version | Text Only | Print | Product List | Glossary On
Versions: 1 2 3 4 5 6 7 8 9 10 11 12 13 14 15 16 17 18 19 20 21 22 23 24 25 26 27 28 29 30 31 32 33 34 35 36 37 38 39 40 41 42 43 44 45 46 47 48 49 50
838
AXUS43 KLBF 302110
MISLBF


WESTERN AND NORTH CENTRAL NEBRASKA HOURLY WEATHER ROUNDUP
NATIONAL WEATHER SERVICE NORTH PLATTE NE
400 PM CDT SAT APR 30 2016

NOTE: "FAIR" INDICATES FEW OR NO CLOUDS BELOW 12,000 FEET WITH NO
SIGNIFICANT WEATHER AND/OR OBSTRUCTIONS TO VISIBILITY.

NOTE: STATIONS NOT REPORTING VARIABLES SUCH AS SKY/WEATHER OR
PRESSURE ARE PROVIDED BY RAWS AND APRS NETWORKS AND ARE NOT UNDER
NATIONAL WEATHER SERVICE QUALITY CONTROL.

...OBSERVATIONS IN AND NEAR THE EASTERN PANHANDLE OF NEBRASKA...

CITY           SKY/WX    TMP DP  RH WIND       PRES   REMARKS
PINE RIDGE     CLOUDY    44  33  65 N23G33    30.01R
CHADRON        LGT RAIN  44  33  65 N24G35    30.04R
ALLIANCE       LGT SNOW  33  32  96 N18       29.98R VSB 3/4 WCI  22
SIDNEY         SNOW      34  32  92 N18       29.97R VSB 1/2 WCI  23
CRESCENT LAKE    N/A     35  34  95 N16G25      N/A  WCI  25
BIG SPRINGS      N/A     36  34  92 N6          N/A  WCI  31
$$

...OBSERVATIONS IN NORTHERN NEBRASKA AND FAR SOUTHERN SOUTH DAKOTA...

CITY           SKY/WX    TMP DP  RH WIND       PRES   REMARKS
WINNER         RAIN      44  39  82 NE28G35   29.96S
VALENTINE      LGT RAIN  40  36  86 NE23G31   29.94R WCI  30
THEDFORD       CLOUDY    36  34  94 N14G21    29.90R WCI  27
AINSWORTH      LGT RAIN  35  34  97 N15       29.92R WCI  25
O`NEILL        DRIZZLE   43  41  95 NE14G22   29.86R
ORD            LGT RAIN  43  41  93 NE15      29.81R FOG
BROKEN BOW     LGT RAIN  40  38  93 N20       29.82S WCI  30
VALENTINE NWR    N/A     35  34  96 NE12G23     N/A  WCI  27
BUTTE            N/A     40  39  96 NE24G32     N/A  WCI  29
HALSEY           N/A     35  34  95 N9G18       N/A  WCI  28
CHAMBERS         N/A     43  42  96 E6G18       N/A
EWING            N/A     44  43  96 NE7G17      N/A
$$

...OBSERVATIONS IN SOUTHWEST NEBRASKA AND FAR NORTHEAST COLORADO...

CITY           SKY/WX    TMP DP  RH WIND       PRES   REMARKS
HOLYOKE        LGT SNOW  37  36  93 N17       29.92R WCI  28
IMPERIAL       LGT SNOW  35  33  92 N17       29.89R FOG     WCI  25
OGALLALA       LGT RAIN  36  34  92 N17G24    29.91R WCI  26
NORTH PLATTE   LGT RAIN  38  35  89 N23G29    29.86R WCI  27
MCCOOK         CLOUDY    41  36  82 N14       29.84R
LEXINGTON      LGT RAIN  42  37  85 N17       29.83R
PAXTON           N/A     35  34  95 N14         N/A  WCI  26
STAPLETON        N/A     35  33  93 NE3         N/A
GOTHENBURG       N/A     38  34  87 N14         N/A  WCI  30
CALLAWAY         N/A     36  34  94 N12         N/A  WCI  28
$$

...OBSERVATIONS IN CENTRAL LINCOLN COUNTY AREA...

CITY           SKY/WX    TMP DP  RH WIND       PRES   REMARKS
N.P. AIRPORT   LGT RAIN  38  35  89 N23G29    29.86R WCI  27
N.P. DOWNTOWN    N/A     34  33  96 N12         N/A  WCI  25
N.P. SOUTHEAST   N/A     34  33  96 N6G15       N/A  WCI  29
N.P. HILLCREST   N/A     34  33  96 NE18        N/A  WCI  23
$$

...SOME OBSERVATIONS FROM AROUND THE REGION...

CITY           SKY/WX    TMP DP  RH WIND       PRES   REMARKS
DENVER         LGT SNOW  34  30  85 N18G30    30.02R VSB 3/4 WCI  23
LARAMIE        LGT SNOW  31  25  78 N12       30.04R WCI  22
CHEYENNE       SNOW      33  30  88 N16G29    30.02R VSB 1/2 WCI  23
SCOTTSBLUFF    LGT RAIN  38 N/A N/A N20G25    30.03R WCI  28
RAPID CITY     CLOUDY    48  34  58 N16       30.09S
BISMARCK       SUNNY     59  29  31 E20G36    30.19S
PIERRE         CLOUDY    54  36  50 NE26G35   30.03R
SIOUX FALLS    LGT RAIN  45  40  82 NE25G37   29.92R
OMAHA          CLOUDY    50  48  93 E9        29.77R FOG
GRAND ISLAND   LGT RAIN  46  44  93 N12       29.79R FOG
KANSAS CITY    MOSUNNY   65  51  60 W14       29.73S
WICHITA        MOSUNNY   63  45  51 W13G25    29.78S
OKLAHOMA CITY  MOSUNNY   70  48  45 NW12G23   29.79F
DALLAS         MOSUNNY   74  59  59 VRB5      29.76F
AMARILLO       CLOUDY    57  38  48 NW8       29.89S
DODGE CITY     CLOUDY    51  37  58 W18G25    29.85S
HAYS           CLOUDY    52  36  54 W14       29.82R
GOODLAND       CLOUDY    41  34  76 NW18      29.86R
$$




USA.gov is the U.S. government's official web portal to all federal, state and local government web resources and services.